Aberdeen, United Kingdom

2:06 AM GMT on February 07, 2016 (GMT +0000)
Dyce

Weather History for EGPD - January, 2013

Change the Weather History Date:

Tuesday, January 8, 2013

  Actual Average Record
Temperature  
Mean Temperature 43 °F -  
Max Temperature 53 °F 42 °F 53 °F (2013)
Min Temperature 33 °F 31 °F 26 °F (2011)
Degree Days  
Heating Degree Days 22    
Moisture  
Dew Point 39 °F    
Average Humidity 89    
Maximum Humidity 100    
Minimum Humidity 54    
Precipitation  
Precipitation 0.04 in 0.10 in - ()
Sea Level Pressure  
Sea Level Pressure 29.99 in    
Wind  
Wind Speed 4 mph ()    
Max Wind Speed 16 mph    
Max Gust Speed -    
Visibility 5.7 miles    
Events Fog , Rain    
Averages and records for this station are not official NWS values.
T = Trace of Precipitation, MM = Missing Value Source: Averaged Metar Reports

Daily Weather History Graph

Daily Weather History Graph

Search for Another Location

Airport or City:

Trip Planner

Search our weather history database for the weather conditions in past years. The results will help you decide how hot, cold, wet, or windy it might be!

Date:

Astronomy

Jan. 08, 2013 Rise Set
Actual Time 8:44 AM GMT 3:47 PM GMT
Civil Twilight 7:56 AM GMT 4:35 PM GMT
Nautical Twilight 7:06 AM GMT 5:25 PM GMT
Astronomical Twilight 6:19 AM GMT 6:12 PM GMT
Moon 4:54 AM GMT (1/8) 12:40 PM GMT (1/8)
Length of Visible Light 8h 39m
Length of Day
7h 03m
Waning Crescent, 15% of the Moon is Illuminated
Jan 8
Waning Crescent
Jan 11
New
Jan 18
First Quarter
Jan 27
Full
Feb 3
Last Quarter

Hourly Weather History & Observations

Time (GMT) Temp. Windchill Dew Point Humidity Pressure Visibility Wind Dir Wind Speed Gust Speed Precip Events Conditions
12:20 AM 35.6 °F - 35.6 °F 100% 30.01 in 0.2 mi Variable 2.3 mph - N/A Fog Fog
12:50 AM 35.6 °F - 35.6 °F 100% 30.01 in 0.4 mi Calm Calm - N/A Fog Fog
1:20 AM 35.6 °F - 35.6 °F 100% 30.01 in 0.2 mi Calm Calm - N/A Fog Fog
1:50 AM 35.6 °F - 33.8 °F 93% 30.01 in 0.2 mi Calm Calm - N/A Fog Fog
2:20 AM 35.6 °F 32.8 °F 35.6 °F 100% 30.01 in 1.6 mi NNW 3.5 mph - N/A   Partly Cloudy
2:50 AM 36 °F - 36 °F 99% 30.01 in 1 mi NNW 1.2 mph - - Fog Fog
2:50 AM 35.6 °F - 35.6 °F 100% 30.01 in 0.9 mi Calm Calm - N/A   Mist
3:20 AM 35.6 °F - 35.6 °F 100% 29.98 in - Calm Calm - N/A Fog Fog
3:50 AM 35.6 °F - 35.6 °F 100% 29.98 in 0.6 mi Calm Calm - N/A   Mist
4:20 AM 35.6 °F - 35.6 °F 100% 29.98 in - Calm Calm - N/A   Mist
4:50 AM 37.4 °F - 37.4 °F 100% 29.95 in 4.3 mi Calm Calm - N/A Fog Fog
5:20 AM 39.2 °F 35.9 °F 39.2 °F 100% 29.95 in 4.3 mi SSE 4.6 mph - N/A Fog Light Drizzle
5:50 AM 42 °F - 42 °F 100% 29.96 in 9 mi SSE 5.8 mph - - Rain Rain
5:50 AM 41.0 °F - 41.0 °F 100% 29.95 in 5.6 mi Calm Calm - N/A   Scattered Clouds
6:20 AM 42.8 °F - 42.8 °F 100% 29.95 in 3.1 mi Calm Calm - N/A   Scattered Clouds
6:50 AM 44.6 °F 40.7 °F 44.6 °F 100% 29.92 in 4.3 mi SE 6.9 mph - N/A Fog Light Drizzle
7:20 AM 46.4 °F 43.5 °F 44.6 °F 93% 29.92 in 4.3 mi ESE 5.8 mph - N/A Fog Light Drizzle
7:50 AM 46.4 °F 44.3 °F 46.4 °F 100% 29.92 in 6.2 mi SE 4.6 mph - N/A   Scattered Clouds
8:20 AM 48.2 °F - 46.4 °F 93% 29.92 in 5.0 mi SE 4.6 mph - N/A Rain Light Rain
8:50 AM 48 °F - 48 °F 99% 29.94 in 12 mi South 12.7 mph - - Rain Light Rain
8:50 AM 48.2 °F - 46.4 °F 93% 29.92 in 5.6 mi South 6.9 mph - N/A Rain Light Rain
9:20 AM 48.2 °F - 46.4 °F 93% 29.95 in 5.0 mi South 8.1 mph - N/A   Mostly Cloudy
9:50 AM 48.2 °F - 46.4 °F 93% 29.92 in 5.0 mi South 4.6 mph - N/A   Scattered Clouds
10:20 AM 48.2 °F - 48.2 °F 100% 29.95 in 5.0 mi SSW 8.1 mph - N/A   Scattered Clouds
10:50 AM 50.0 °F - 48.2 °F 94% 29.95 in 6.2 mi SSW 5.8 mph - N/A   Scattered Clouds
11:20 AM 50.0 °F - 48.2 °F 94% 29.92 in 6.2 mi South 5.8 mph - N/A   Partly Cloudy
11:50 AM 50 °F - 49 °F 95% 29.93 in 19 mi SSW 8.1 mph - -   Overcast
11:50 AM 50.0 °F - 48.2 °F 94% 29.92 in 6.2 mi South 5.8 mph - N/A   Partly Cloudy
12:20 PM 50.0 °F - 48.2 °F 94% 29.92 in 6.2 mi SW 5.8 mph - N/A   Partly Cloudy
12:50 PM 51.8 °F - 48.2 °F 88% 29.92 in 6.2 mi SSW 8.1 mph - N/A   Partly Cloudy
1:20 PM 51.8 °F - 48.2 °F 88% 29.92 in 6.2 mi WNW 4.6 mph - N/A   Partly Cloudy
1:50 PM 51.8 °F - 46.4 °F 82% 29.92 in 6.2 mi West 11.5 mph - N/A   Partly Cloudy
2:20 PM 50.0 °F - 44.6 °F 82% 29.95 in 6.2 mi West 12.7 mph - N/A   Partly Cloudy
2:50 PM 51 °F - 39 °F 54% 29.97 in 28 mi WNW 16.1 mph - -   Overcast
2:50 PM 50.0 °F - 42.8 °F 76% 29.95 in 6.2 mi West 11.5 mph - N/A   Partly Cloudy
3:20 PM 50.0 °F - 41.0 °F 71% 29.98 in 6.2 mi West 11.5 mph - N/A   Partly Cloudy
3:50 PM 48.2 °F - 39.2 °F 71% 29.98 in - West 11.5 mph - N/A   Clear
4:20 PM 46.4 °F 41.9 °F 39.2 °F 76% 30.01 in - West 9.2 mph - N/A   Clear
4:50 PM 46.4 °F 41.1 °F 37.4 °F 71% 30.01 in - West 11.5 mph - N/A   Clear
5:20 PM 42.8 °F 38.0 °F 37.4 °F 81% 30.01 in - West 8.1 mph - N/A   Clear
5:50 PM 45 °F - 34 °F 55% 30.04 in 22 mi West 9.2 mph - -  
5:50 PM 42.8 °F 39.3 °F 35.6 °F 76% 30.04 in - WSW 5.8 mph - N/A   Clear
6:20 PM 42.8 °F 40.1 °F 35.6 °F 76% 30.04 in - South 4.6 mph - N/A   Clear
6:50 PM 41.0 °F 39.0 °F 33.8 °F 76% 30.04 in - West 3.5 mph - N/A   Clear
7:20 PM 41.0 °F 39.0 °F 33.8 °F 76% 30.04 in - Variable 3.5 mph - N/A   Clear
7:50 PM 39.2 °F - 33.8 °F 81% 30.04 in - Variable 2.3 mph - N/A   Clear
8:20 PM 39.2 °F 37.0 °F 33.8 °F 81% 30.06 in - SSW 3.5 mph - N/A   Clear
8:50 PM 37 °F - 33 °F 82% 30.07 in 14 mi South 2.3 mph - -  
8:50 PM 35.6 °F 32.8 °F 30.2 °F 81% 30.06 in - SSW 3.5 mph - N/A   Clear
9:20 PM 35.6 °F - 32.0 °F 87% 30.06 in - Variable 2.3 mph - N/A   Clear
9:50 PM 33.8 °F 28.6 °F 32.0 °F 93% 30.06 in - SSW 5.8 mph - N/A   Clear
10:20 PM 33.8 °F 30.8 °F 32.0 °F 93% 30.06 in - Variable 3.5 mph - N/A   Clear
10:50 PM 33.8 °F 29.6 °F 32.0 °F 93% 30.06 in - SSW 4.6 mph - N/A   Clear
11:20 PM 35.6 °F 29.2 °F 32.0 °F 87% 30.06 in - SW 8.1 mph - N/A   Clear
11:50 PM 35 °F - 33 °F 88% 30.09 in 19 mi SW 2.3 mph - -  
11:50 PM 35.6 °F 31.7 °F 32.0 °F 87% 30.09 in - SW 4.6 mph - N/A   Clear